RYR39BP EBCI-LERS

Flight info

Callsign RYR39BP
Flight time 1h 42m
Altitude 31000
Route CIV N872 LESDO DCT KOVIN DCT DUCRA/N0462F350 DCT RESMI DCT DEKOD DCT DISAK DCT DIRMO DCT VALKU DCT ATSUP DCT MINSO DCT DEGOL DCT PPG DCT ALBER DCT GIR
Aircraft B738/M-SDE2E3FGHIRWXY/LB1

Departure

Time 2026-05-09 14:51
Airport Brussels South Charleroi Airport (EBCI)

Arrival

Time 2026-05-09 16:33
Airport Reus Airport (LERS)
Time Latitude Longitude Altitude Speed Heading
2026-05-09 14:19 50.46837 4.46988 584 ft 0 kts 336°
2026-05-09 14:42 50.46831 4.46992 584 ft 4 kts 336°
2026-05-09 14:42 50.46809 4.47007 584 ft 3 kts 335°
2026-05-09 14:42 50.46794 4.47028 584 ft 5 kts 268°
2026-05-09 14:42 50.46800 4.47068 584 ft 5 kts 246°
2026-05-09 14:43 50.46805 4.47084 584 ft 3 kts 245°
2026-05-09 14:46 50.46799 4.47064 584 ft 6 kts 246°
2026-05-09 14:46 50.46771 4.46964 584 ft 13 kts 245°
2026-05-09 14:46 50.46728 4.46815 586 ft 13 kts 246°
2026-05-09 14:46 50.46684 4.46772 588 ft 8 kts 168°
2026-05-09 14:47 50.46635 4.46804 590 ft 8 kts 162°
2026-05-09 14:47 50.46589 4.46742 590 ft 14 kts 245°
2026-05-09 14:47 50.46532 4.46545 589 ft 25 kts 246°
2026-05-09 14:47 50.46450 4.46262 590 ft 29 kts 246°
2026-05-09 14:48 50.46368 4.45981 595 ft 27 kts 246°
2026-05-09 14:48 50.46292 4.45718 596 ft 26 kts 245°
2026-05-09 14:48 50.46220 4.45474 598 ft 24 kts 245°
2026-05-09 14:48 50.46153 4.45241 598 ft 24 kts 245°
2026-05-09 14:49 50.46077 4.44977 595 ft 27 kts 246°
2026-05-09 14:49 50.46001 4.44718 596 ft 25 kts 245°
2026-05-09 14:49 50.45928 4.44478 599 ft 23 kts 239°
2026-05-09 14:49 50.45832 4.44278 598 ft 23 kts 232°
2026-05-09 14:50 50.45738 4.44086 593 ft 22 kts 231°
2026-05-09 14:50 50.45651 4.43986 593 ft 12 kts 160°
2026-05-09 14:50 50.45625 4.44037 593 ft 5 kts 86°
2026-05-09 14:50 50.45660 4.44172 593 ft 40 kts 65°
2026-05-09 14:51 50.45898 4.44985 593 ft 122 kts 65°
2026-05-09 14:51 50.46333 4.46483 845 ft 166 kts 64°
2026-05-09 14:51 50.46806 4.48131 1881 ft 165 kts 65°
2026-05-09 14:51 50.47579 4.49531 2657 ft 185 kts 30°
2026-05-09 14:52 50.48777 4.50319 3600 ft 186 kts 30°
2026-05-09 14:52 50.49706 4.51806 4228 ft 204 kts 59°
2026-05-09 14:52 50.50493 4.53865 4489 ft 231 kts 58°
2026-05-09 14:52 50.51445 4.56071 4812 ft 260 kts 56°
2026-05-09 14:53 50.52554 4.58456 5410 ft 279 kts 55°
2026-05-09 14:53 50.53826 4.60750 6501 ft 279 kts 36°
2026-05-09 14:53 50.55637 4.61782 7487 ft 284 kts
2026-05-09 14:53 50.57528 4.61095 8519 ft 280 kts 329°
2026-05-09 14:54 50.59044 4.59207 9527 ft 280 kts 308°
2026-05-09 14:54 50.60037 4.56626 10385 ft 282 kts 289°
2026-05-09 14:54 50.60377 4.53502 10726 ft 304 kts 269°
2026-05-09 14:54 50.60291 4.50041 10938 ft 329 kts 265°
2026-05-09 14:55 50.60122 4.46258 11128 ft 354 kts 265°
2026-05-09 14:55 50.59932 4.42338 11353 ft 374 kts 265°
2026-05-09 14:55 50.59737 4.38154 11892 ft 382 kts 265°
2026-05-09 14:55 50.59554 4.34014 12586 ft 386 kts 265°
2026-05-09 14:56 50.59374 4.29785 13348 ft 389 kts 265°
2026-05-09 14:56 50.59129 4.25541 14071 ft 391 kts 259°
2026-05-09 14:56 50.58229 4.21505 14713 ft 394 kts 240°
2026-05-09 14:56 50.56564 4.18084 15438 ft 396 kts 225°
2026-05-09 14:57 50.54447 4.15291 16114 ft 399 kts 216°
2026-05-09 14:57 50.52113 4.12893 16728 ft 403 kts 212°
2026-05-09 14:57 50.49696 4.10610 17338 ft 407 kts 212°
2026-05-09 14:57 50.47259 4.08305 17943 ft 411 kts 212°
2026-05-09 14:58 50.44854 4.05865 18487 ft 414 kts 216°
2026-05-09 14:58 50.42534 4.03166 19009 ft 417 kts 217°
2026-05-09 14:58 50.40219 4.00411 19527 ft 419 kts 218°
2026-05-09 14:58 50.37890 3.97640 20051 ft 422 kts 217°
2026-05-09 14:59 50.35543 3.94866 20549 ft 424 kts 217°
2026-05-09 14:59 50.33172 3.92085 20995 ft 428 kts 217°
2026-05-09 14:59 50.30779 3.89288 21442 ft 431 kts 217°
2026-05-09 14:59 50.28371 3.86484 21898 ft 433 kts 217°
2026-05-09 15:00 50.25942 3.83660 22356 ft 436 kts 217°
2026-05-09 15:00 50.23504 3.80828 22800 ft 438 kts 217°
2026-05-09 15:00 50.21053 3.77985 23215 ft 441 kts 217°
2026-05-09 15:00 50.18584 3.75124 23607 ft 443 kts 217°
2026-05-09 15:01 50.13643 3.69408 24256 ft 447 kts 217°
2026-05-09 15:01 50.11135 3.66514 24579 ft 449 kts 218°
2026-05-09 15:01 50.08618 3.63616 24958 ft 450 kts 217°
2026-05-09 15:02 50.06101 3.60720 25337 ft 450 kts 218°
2026-05-09 15:02 50.03583 3.57825 25716 ft 450 kts 218°
2026-05-09 15:02 50.01069 3.54941 26157 ft 448 kts 218°
2026-05-09 15:02 49.98569 3.52074 26653 ft 445 kts 218°
2026-05-09 15:03 49.96085 3.49229 27176 ft 442 kts 218°
2026-05-09 15:03 49.93618 3.46409 27705 ft 439 kts 219°
2026-05-09 15:03 49.91160 3.43600 28199 ft 437 kts 219°
2026-05-09 15:03 49.88727 3.40825 28813 ft 432 kts 220°
2026-05-09 15:04 49.86318 3.38079 29432 ft 428 kts 220°
2026-05-09 15:04 49.83926 3.35356 30000 ft 425 kts 220°
2026-05-09 15:06 49.65060 3.21412 32530 ft 429 kts 207°
2026-05-09 15:06 49.62311 3.19602 32818 ft 430 kts 207°
2026-05-09 15:06 49.59552 3.17785 33086 ft 432 kts 207°
2026-05-09 15:06 49.56795 3.15971 33401 ft 432 kts 207°
2026-05-09 15:07 49.54033 3.14158 33754 ft 431 kts 206°
2026-05-09 15:07 49.51275 3.12352 34126 ft 429 kts 207°
2026-05-09 15:07 49.48561 3.10496 34501 ft 425 kts 210°
2026-05-09 15:07 49.46048 3.08158 34811 ft 420 kts 217°
2026-05-09 15:08 49.43623 3.05654 34986 ft 422 kts 217°
2026-05-09 15:08 49.36264 2.98094 34975 ft 422 kts 216°
2026-05-09 15:10 49.16836 2.78504 34986 ft 416 kts 216°
2026-05-09 15:11 49.12023 2.73682 34989 ft 416 kts 216°
2026-05-09 15:11 49.07172 2.68833 34990 ft 417 kts 216°
2026-05-09 15:12 49.02313 2.63986 34990 ft 418 kts 216°
2026-05-09 15:12 48.97453 2.59151 35000 ft 417 kts 216°
2026-05-09 15:13 48.92598 2.54332 34962 ft 416 kts 216°
2026-05-09 15:13 48.87756 2.49535 34966 ft 415 kts 216°
2026-05-09 15:14 48.82917 2.44749 34971 ft 415 kts 216°
2026-05-09 15:14 48.78078 2.39974 34966 ft 415 kts 216°
2026-05-09 15:15 48.74062 2.36019 34967 ft 414 kts 216°
2026-05-09 15:15 48.69226 2.31266 34967 ft 414 kts 216°
2026-05-09 15:16 48.64385 2.26518 34967 ft 415 kts 216°
2026-05-09 15:16 48.59541 2.21789 34964 ft 414 kts 214°
2026-05-09 15:17 48.54314 2.18302 34961 ft 422 kts 200°
2026-05-09 15:17 48.48549 2.16443 34950 ft 424 kts 196°
2026-05-09 15:18 48.42774 2.14643 34954 ft 423 kts 197°
2026-05-09 15:18 48.37029 2.12802 34943 ft 421 kts 197°
2026-05-09 15:19 48.31316 2.10973 34938 ft 420 kts 195°
2026-05-09 15:19 48.25436 2.10507 34939 ft 430 kts 179°
2026-05-09 15:20 48.16528 2.12518 34930 ft 430 kts 177°
2026-05-09 15:21 48.10612 2.13517 34933 ft 425 kts 182°
2026-05-09 15:21 48.04713 2.13829 34936 ft 424 kts 184°
2026-05-09 15:22 47.98807 2.14088 34929 ft 425 kts 183°
2026-05-09 15:22 47.92890 2.14396 34940 ft 426 kts 183°
2026-05-09 15:23 47.86967 2.14733 34940 ft 426 kts 183°
2026-05-09 15:23 47.81036 2.15078 34930 ft 427 kts 183°
2026-05-09 15:24 47.75103 2.15424 34916 ft 426 kts 183°
2026-05-09 15:24 47.69202 2.15766 34914 ft 424 kts 183°
2026-05-09 15:25 47.63363 2.16103 34923 ft 422 kts 183°
2026-05-09 15:25 47.57498 2.16439 34918 ft 421 kts 183°
2026-05-09 15:26 47.48739 2.16941 34919 ft 419 kts 184°
2026-05-09 15:26 47.42922 2.17273 34918 ft 418 kts 184°
2026-05-09 15:27 47.37117 2.17603 34920 ft 417 kts 184°
2026-05-09 15:27 47.31320 2.17933 34920 ft 416 kts 184°
2026-05-09 15:28 47.25536 2.18261 34914 ft 416 kts 184°
2026-05-09 15:28 47.19761 2.18588 34920 ft 415 kts 184°
2026-05-09 15:29 47.13994 2.18913 34917 ft 415 kts 184°
2026-05-09 15:29 47.08227 2.19820 34920 ft 423 kts 173°
2026-05-09 15:30 47.02624 2.22756 34926 ft 431 kts 165°
2026-05-09 15:30 46.97076 2.26065 34928 ft 430 kts 165°
2026-05-09 15:31 46.91523 2.29341 34924 ft 429 kts 165°
2026-05-09 15:31 46.86017 2.32554 34920 ft 429 kts 165°
2026-05-09 15:32 46.80477 2.35770 34921 ft 428 kts 165°
2026-05-09 15:32 46.74949 2.38970 34916 ft 427 kts 165°
2026-05-09 15:33 46.69426 2.42160 34917 ft 427 kts 165°
2026-05-09 15:33 46.63907 2.45342 34909 ft 427 kts 165°
2026-05-09 15:34 46.58379 2.48520 34920 ft 428 kts 165°
2026-05-09 15:34 46.52837 2.51701 34917 ft 429 kts 165°
2026-05-09 15:35 46.47290 2.54878 34913 ft 429 kts 165°
2026-05-09 15:35 46.41735 2.58054 34915 ft 429 kts 165°
2026-05-09 15:36 46.36179 2.61222 34910 ft 429 kts 165°
2026-05-09 15:36 46.30624 2.64383 34915 ft 429 kts 165°
2026-05-09 15:37 46.25069 2.67537 34911 ft 429 kts 165°
2026-05-09 15:37 46.19520 2.70681 34913 ft 428 kts 165°
2026-05-09 15:38 46.13977 2.73814 34912 ft 428 kts 165°
2026-05-09 15:38 46.08440 2.76938 34908 ft 426 kts 165°
2026-05-09 15:39 46.02921 2.80045 34909 ft 426 kts 165°
2026-05-09 15:39 45.97393 2.83117 34913 ft 425 kts 165°
2026-05-09 15:40 45.91836 2.86050 34927 ft 425 kts 165°
2026-05-09 15:40 45.86272 2.88976 34931 ft 427 kts 165°
2026-05-09 15:41 45.80697 2.91923 34933 ft 427 kts 165°
2026-05-09 15:41 45.75110 2.94592 34932 ft 422 kts 173°
2026-05-09 15:42 45.69334 2.95269 34936 ft 414 kts 185°
2026-05-09 15:42 45.63557 2.95051 34935 ft 415 kts 185°
2026-05-09 15:43 45.57780 2.94859 34937 ft 416 kts 185°
2026-05-09 15:43 45.51998 2.94693 34929 ft 416 kts 184°
2026-05-09 15:44 45.46213 2.94537 34945 ft 416 kts 184°
2026-05-09 15:44 45.40421 2.94381 34949 ft 416 kts 184°
2026-05-09 15:45 45.34630 2.94226 34939 ft 417 kts 184°
2026-05-09 15:45 45.28834 2.94071 34947 ft 416 kts 184°
2026-05-09 15:46 45.23044 2.93916 34951 ft 416 kts 184°
2026-05-09 15:46 45.17245 2.93761 34951 ft 417 kts 184°
2026-05-09 15:47 45.11451 2.93607 34955 ft 416 kts 184°
2026-05-09 15:47 45.05701 2.93454 34957 ft 416 kts 184°
2026-05-09 15:48 44.99881 2.93299 34965 ft 415 kts 184°
2026-05-09 15:48 44.94105 2.93146 34957 ft 415 kts 184°
2026-05-09 15:49 44.88366 2.92994 34969 ft 415 kts 184°
2026-05-09 15:49 44.82589 2.92806 34973 ft 415 kts 185°
2026-05-09 15:50 44.76832 2.92386 34971 ft 413 kts 186°
2026-05-09 15:50 44.71089 2.91922 34970 ft 413 kts 186°
2026-05-09 15:51 44.65350 2.91481 34975 ft 413 kts 186°
2026-05-09 15:51 44.59606 2.91057 34977 ft 413 kts 186°
2026-05-09 15:52 44.50993 2.90431 34968 ft 413 kts 186°
2026-05-09 15:53 44.45260 2.90015 34982 ft 412 kts 186°
2026-05-09 15:53 44.39530 2.89601 34975 ft 412 kts 186°
2026-05-09 15:54 44.33805 2.89186 34964 ft 412 kts 186°
2026-05-09 15:54 44.28088 2.88774 34978 ft 411 kts 186°
2026-05-09 15:55 44.22370 2.88362 34975 ft 412 kts 186°
2026-05-09 15:55 44.16651 2.87951 34972 ft 411 kts 186°
2026-05-09 15:56 44.10943 2.87542 34977 ft 410 kts 186°
2026-05-09 15:56 44.05242 2.87135 34977 ft 410 kts 186°
2026-05-09 15:57 43.99538 2.86726 34975 ft 410 kts 186°
2026-05-09 15:57 43.93844 2.86319 34969 ft 409 kts 185°
2026-05-09 15:58 43.88170 2.85916 34972 ft 408 kts 185°
2026-05-09 15:58 43.82508 2.85513 34970 ft 407 kts 185°
2026-05-09 15:59 43.76841 2.85172 34963 ft 407 kts 183°
2026-05-09 15:59 43.71214 2.85232 34966 ft 407 kts 182°
2026-05-09 16:00 43.65525 2.85357 34961 ft 406 kts 182°
2026-05-09 16:00 43.59916 2.85462 34966 ft 406 kts 182°
2026-05-09 16:01 43.54271 2.85552 34967 ft 405 kts 182°
2026-05-09 16:01 43.48647 2.85634 34967 ft 403 kts 182°
2026-05-09 16:02 43.43029 2.85717 34961 ft 404 kts 182°
2026-05-09 16:02 43.34597 2.85839 34960 ft 404 kts 182°
2026-05-09 16:03 43.28973 2.85921 34956 ft 405 kts 182°
2026-05-09 16:03 43.23342 2.86003 34958 ft 405 kts 182°
2026-05-09 16:04 43.18661 2.86071 34948 ft 405 kts 181°
2026-05-09 16:04 43.13029 2.86153 34954 ft 405 kts 181°
2026-05-09 16:05 43.07396 2.86234 34955 ft 405 kts 181°
2026-05-09 16:05 43.01761 2.86316 34956 ft 405 kts 181°
2026-05-09 16:06 42.96117 2.86397 34958 ft 405 kts 181°
2026-05-09 16:06 42.93293 2.86437 34722 ft 406 kts 181°
2026-05-09 16:06 42.90479 2.86478 34482 ft 402 kts 181°
2026-05-09 16:07 42.87691 2.86519 34237 ft 400 kts 181°
2026-05-09 16:07 42.84908 2.86559 34005 ft 401 kts 181°
2026-05-09 16:07 42.82117 2.86598 33742 ft 401 kts 181°
2026-05-09 16:07 42.79323 2.86638 33471 ft 402 kts 181°
2026-05-09 16:08 42.76529 2.86678 33203 ft 402 kts 181°
2026-05-09 16:08 42.73730 2.86605 32931 ft 402 kts 185°
2026-05-09 16:08 42.70937 2.86275 32678 ft 404 kts 186°
2026-05-09 16:08 42.68140 2.85927 32343 ft 402 kts 186°
2026-05-09 16:09 42.65373 2.85585 31598 ft 399 kts 186°
2026-05-09 16:09 42.62587 2.85246 30485 ft 407 kts 187°
2026-05-09 16:09 42.59723 2.84902 29100 ft 419 kts 187°
2026-05-09 16:09 42.56788 2.84555 27880 ft 426 kts 186°
2026-05-09 16:10 42.53867 2.84214 27399 ft 415 kts 187°
2026-05-09 16:10 42.50991 2.83879 26890 ft 418 kts 187°
2026-05-09 16:10 42.48047 2.83532 26402 ft 431 kts 187°
2026-05-09 16:10 42.45024 2.83178 25902 ft 438 kts 187°
2026-05-09 16:11 42.41994 2.82826 25419 ft 435 kts 187°
2026-05-09 16:11 42.38991 2.82480 24942 ft 432 kts 187°
2026-05-09 16:11 42.36005 2.82135 24476 ft 429 kts 186°
2026-05-09 16:11 42.33037 2.81792 24014 ft 428 kts 186°
2026-05-09 16:12 42.30078 2.81451 23513 ft 426 kts 186°
2026-05-09 16:12 42.27142 2.81112 22758 ft 420 kts 186°
2026-05-09 16:12 42.24245 2.80778 21929 ft 417 kts 186°
2026-05-09 16:12 42.21368 2.80414 21095 ft 413 kts 189°
2026-05-09 16:13 42.18583 2.79547 20247 ft 410 kts 201°
2026-05-09 16:13 42.16086 2.77748 19481 ft 406 kts 216°
2026-05-09 16:13 42.14006 2.75207 18755 ft 403 kts 227°
2026-05-09 16:13 42.12252 2.72287 18237 ft 397 kts 233°
2026-05-09 16:14 42.10678 2.69275 17687 ft 390 kts 234°
2026-05-09 16:14 42.09132 2.66256 17194 ft 394 kts 234°
2026-05-09 16:14 42.07575 2.63264 16683 ft 397 kts 233°
2026-05-09 16:14 42.05946 2.60261 16171 ft 397 kts 230°
2026-05-09 16:15 42.04148 2.57441 15672 ft 397 kts 226°
2026-05-09 16:15 42.02292 2.54697 15183 ft 397 kts 225°
2026-05-09 16:15 42.00418 2.51965 14799 ft 396 kts 225°
2026-05-09 16:15 41.98560 2.49249 14569 ft 395 kts 225°
2026-05-09 16:16 41.96692 2.46503 14344 ft 401 kts 225°
2026-05-09 16:16 41.94805 2.43713 14118 ft 405 kts 226°
2026-05-09 16:16 41.92919 2.40914 13878 ft 404 kts 226°
2026-05-09 16:16 41.91034 2.38108 13639 ft 405 kts 226°
2026-05-09 16:17 41.89145 2.35296 13370 ft 406 kts 226°
2026-05-09 16:17 41.87258 2.32489 13113 ft 405 kts 226°
2026-05-09 16:17 41.85378 2.29694 12843 ft 403 kts 226°
2026-05-09 16:17 41.83506 2.26915 12583 ft 398 kts 226°
2026-05-09 16:18 41.81680 2.24206 12309 ft 385 kts 226°
2026-05-09 16:18 41.79918 2.21594 12001 ft 371 kts 226°
2026-05-09 16:18 41.78207 2.19061 11623 ft 362 kts 226°
2026-05-09 16:18 41.76550 2.16610 11241 ft 349 kts 226°
2026-05-09 16:19 41.74936 2.14226 10911 ft 342 kts 226°
2026-05-09 16:19 41.73345 2.11876 10587 ft 340 kts 226°
2026-05-09 16:19 41.71772 2.09557 10471 ft 332 kts 226°
2026-05-09 16:19 41.70241 2.07300 10409 ft 323 kts 226°
2026-05-09 16:20 41.68749 2.05103 10332 ft 314 kts 226°
2026-05-09 16:20 41.67307 2.02981 10252 ft 303 kts 226°
2026-05-09 16:20 41.65892 2.00903 9963 ft 301 kts 225°
2026-05-09 16:20 41.64488 1.98841 9585 ft 300 kts 225°
2026-05-09 16:21 41.63087 1.96785 9247 ft 297 kts 225°
2026-05-09 16:21 41.61705 1.94758 9012 ft 291 kts 226°
2026-05-09 16:21 41.60354 1.92775 8741 ft 287 kts 225°
2026-05-09 16:21 41.59019 1.90819 8512 ft 284 kts 225°
2026-05-09 16:22 41.57691 1.88874 8249 ft 283 kts 225°
2026-05-09 16:22 41.56365 1.86934 7961 ft 282 kts 226°
2026-05-09 16:22 41.55047 1.85004 7712 ft 281 kts 226°
2026-05-09 16:22 41.53734 1.83085 7450 ft 279 kts 226°
2026-05-09 16:23 41.52430 1.81181 7194 ft 276 kts 226°
2026-05-09 16:23 41.51144 1.79304 7006 ft 271 kts 226°
2026-05-09 16:23 41.49878 1.77459 6817 ft 269 kts 226°
2026-05-09 16:23 41.48623 1.75630 6615 ft 265 kts 226°
2026-05-09 16:24 41.47388 1.73833 6414 ft 261 kts 226°
2026-05-09 16:24 41.46164 1.72050 6219 ft 261 kts 226°
2026-05-09 16:24 41.44941 1.70270 6005 ft 260 kts 226°
2026-05-09 16:24 41.43720 1.68492 5817 ft 261 kts 226°
2026-05-09 16:25 41.42511 1.66736 5618 ft 260 kts 225°
2026-05-09 16:25 41.41272 1.64935 5415 ft 259 kts 226°
2026-05-09 16:25 41.40062 1.63178 5246 ft 254 kts 225°
2026-05-09 16:25 41.38879 1.61459 5147 ft 250 kts 225°
2026-05-09 16:26 41.37711 1.59765 5024 ft 248 kts 225°
2026-05-09 16:26 41.36555 1.58090 4974 ft 244 kts 225°
2026-05-09 16:26 41.35412 1.56435 4975 ft 242 kts 225°
2026-05-09 16:26 41.34224 1.54802 4764 ft 249 kts 216°
2026-05-09 16:27 41.32738 1.53679 4522 ft 245 kts 202°
2026-05-09 16:27 41.31180 1.52751 4266 ft 246 kts 202°
2026-05-09 16:27 41.29627 1.51796 4029 ft 247 kts 202°
2026-05-09 16:27 41.28076 1.50827 3841 ft 245 kts 202°
2026-05-09 16:28 41.26544 1.49865 3700 ft 240 kts 202°
2026-05-09 16:28 41.25087 1.48944 3592 ft 229 kts 204°
2026-05-09 16:28 41.23904 1.47608 3424 ft 224 kts 238°
2026-05-09 16:28 41.23270 1.45742 3329 ft 220 kts 246°
2026-05-09 16:29 41.22678 1.43891 3153 ft 215 kts 245°
2026-05-09 16:29 41.22122 1.42059 3000 ft 215 kts 248°
2026-05-09 16:29 41.21577 1.40211 2894 ft 212 kts 247°
2026-05-09 16:29 41.21059 1.38429 2760 ft 202 kts 247°
2026-05-09 16:30 41.20564 1.36732 2630 ft 192 kts 246°
2026-05-09 16:30 41.20080 1.35076 2596 ft 192 kts 246°
2026-05-09 16:30 41.19605 1.33449 2598 ft 183 kts 246°
2026-05-09 16:30 41.19143 1.31863 2426 ft 185 kts 245°
2026-05-09 16:31 41.18684 1.30289 2203 ft 178 kts 246°
2026-05-09 16:31 41.18249 1.28795 1956 ft 170 kts 246°
2026-05-09 16:31 41.17829 1.27350 1737 ft 167 kts 246°
2026-05-09 16:31 41.17408 1.25904 1518 ft 169 kts 246°
2026-05-09 16:32 41.16985 1.24449 1270 ft 168 kts 246°
2026-05-09 16:32 41.16706 1.23492 1128 ft 167 kts 246°
2026-05-09 16:32 41.16155 1.21603 848 ft 162 kts 247°
2026-05-09 16:32 41.15755 1.20208 601 ft 161 kts 249°
2026-05-09 16:33 41.15359 1.18843 366 ft 158 kts 249°
2026-05-09 16:33 41.14972 1.17519 247 ft 145 kts 249°
2026-05-09 16:33 41.14674 1.16490 245 ft 89 kts 249°
2026-05-09 16:33 41.14522 1.15974 245 ft 41 kts 249°
2026-05-09 16:34 41.14445 1.15716 245 ft 20 kts 248°
2026-05-09 16:34 41.14438 1.15627 245 ft 6 kts 315°
2026-05-09 16:34 41.14476 1.15602 245 ft 7 kts 337°
2026-05-09 16:34 41.14529 1.15572 245 ft 10 kts 337°
2026-05-09 16:35 41.14579 1.15566 245 ft 4 kts 55°
2026-05-09 16:35 41.14590 1.15600 245 ft 4 kts 67°
2026-05-09 16:35 41.14604 1.15647 245 ft 8 kts 68°
2026-05-09 16:35 41.14630 1.15731 245 ft 12 kts 69°
2026-05-09 16:36 41.14659 1.15838 245 ft 13 kts 71°
2026-05-09 16:36 41.14738 1.15882 245 ft 5 kts 338°
2026-05-09 16:37 41.14757 1.15872 258 ft 0 kts 337°
2026-05-09 16:37 41.14756 1.15872 258 ft 0 kts 337°
2026-05-09 16:53 41.14757 1.15872 243 ft 0 kts 337°